Time,TemperatureF,DewpointF,PressureIn,WindDirection,WindDirectionDegrees,WindSpeedMPH,WindSpeedGustMPH,Humidity,HourlyPrecipIn,Conditions,Clouds,dailyrainin,SoftwareType,DateUTC
2013-05-22 00:00:00,60.0,53.5,29.91,SE,135,0.0,0.0,79,0.00,,---,0.59,VWS V14.01,2013-05-22 04:00:00,
2013-05-22 00:01:00,60.0,53.5,29.91,SE,135,0.0,0.0,79,0.00,,---,0.59,VWS V14.01,2013-05-22 04:01:00,
2013-05-22 00:06:00,59.9,53.4,29.92,WNW,292,0.0,0.0,79,0.00,,---,0.00,VWS V14.01,2013-05-22 04:06:00,
2013-05-22 00:11:00,59.9,53.7,29.92,SSE,158,0.0,0.0,80,0.00,,---,0.00,VWS V14.01,2013-05-22 04:11:00,
2013-05-22 00:16:00,59.9,53.7,29.93,SSE,158,0.0,0.0,80,0.00,,---,0.00,VWS V14.01,2013-05-22 04:16:00,
2013-05-22 00:21:00,59.7,53.5,29.95,NW,315,0.0,0.0,80,0.00,,---,0.00,VWS V14.01,2013-05-22 04:21:00,
2013-05-22 00:26:00,59.7,53.9,29.96,NW,315,0.0,0.0,81,0.00,,---,0.00,VWS V14.01,2013-05-22 04:26:00,
2013-05-22 00:31:00,59.9,54.1,29.95,NNE,22,0.0,0.0,81,0.00,,---,0.00,VWS V14.01,2013-05-22 04:31:00,
2013-05-22 00:36:00,59.7,54.2,29.94,NE,45,0.0,0.0,82,0.08,,---,0.08,VWS V14.01,2013-05-22 04:36:00,
2013-05-22 00:41:00,59.7,54.2,29.93,NE,45,0.0,0.0,82,0.14,,---,0.14,VWS V14.01,2013-05-22 04:41:00,
2013-05-22 00:46:00,59.7,54.2,29.93,NE,45,0.0,0.0,82,0.18,,---,0.18,VWS V14.01,2013-05-22 04:46:00,
2013-05-22 00:51:00,59.7,54.2,29.93,NE,45,0.0,0.0,82,0.18,,---,0.18,VWS V14.01,2013-05-22 04:51:00,
2013-05-22 00:56:00,59.7,54.2,29.92,NE,45,0.0,0.0,82,0.22,,---,0.22,VWS V14.01,2013-05-22 04:56:00,
2013-05-22 01:01:00,59.7,54.2,29.93,NE,45,0.0,0.0,82,0.22,,---,0.22,VWS V14.01,2013-05-22 05:01:00,
2013-05-22 01:06:00,59.7,54.2,29.93,NE,45,0.0,0.0,82,0.22,,---,0.22,VWS V14.01,2013-05-22 05:06:00,
2013-05-22 01:11:00,59.5,54.0,29.93,NE,45,0.0,0.0,82,0.24,,---,0.24,VWS V14.01,2013-05-22 05:11:00,
2013-05-22 01:16:00,59.5,54.0,29.92,NE,45,0.0,0.0,82,0.24,,---,0.24,VWS V14.01,2013-05-22 05:16:00,
2013-05-22 01:21:00,59.5,54.0,29.92,NE,45,0.0,0.0,82,0.26,,---,0.26,VWS V14.01,2013-05-22 05:21:00,
2013-05-22 01:26:00,59.5,54.0,29.92,NE,45,0.0,0.0,82,0.26,,---,0.26,VWS V14.01,2013-05-22 05:26:00,
2013-05-22 01:31:00,59.5,54.0,29.92,NE,45,0.0,0.0,82,0.26,,---,0.26,VWS V14.01,2013-05-22 05:31:00,
2013-05-22 01:36:00,59.7,54.2,29.92,NE,45,0.0,0.0,82,0.19,,---,0.26,VWS V14.01,2013-05-22 05:36:00,
2013-05-22 01:41:00,59.5,54.0,29.92,NE,45,0.0,0.0,82,0.12,,---,0.26,VWS V14.01,2013-05-22 05:41:00,
2013-05-22 01:46:00,59.5,54.0,29.92,NE,45,0.0,0.0,82,0.08,,---,0.26,VWS V14.01,2013-05-22 05:46:00,
2013-05-22 01:51:00,59.5,54.0,29.92,NE,45,0.0,0.0,82,0.08,,---,0.26,VWS V14.01,2013-05-22 05:51:00,
2013-05-22 01:56:00,59.5,54.0,29.92,NE,45,0.0,0.0,82,0.04,,---,0.26,VWS V14.01,2013-05-22 05:56:00,
2013-05-22 02:01:00,59.5,54.0,29.92,NE,45,0.0,0.0,82,0.04,,---,0.26,VWS V14.01,2013-05-22 06:01:00,
2013-05-22 02:06:00,59.5,54.0,29.91,NE,45,0.0,0.0,82,0.04,,---,0.26,VWS V14.01,2013-05-22 06:06:00,
2013-05-22 02:11:00,59.5,54.0,29.91,NE,45,0.0,0.0,82,0.02,,---,0.26,VWS V14.01,2013-05-22 06:11:00,
2013-05-22 02:16:00,59.5,54.0,29.91,NE,45,0.0,0.0,82,0.02,,---,0.26,VWS V14.01,2013-05-22 06:16:00,
2013-05-22 02:21:00,59.5,54.0,29.91,NE,45,0.0,0.0,82,0.00,,---,0.26,VWS V14.01,2013-05-22 06:21:00,
2013-05-22 02:26:00,59.5,54.0,29.92,NE,45,0.0,0.0,82,0.00,,---,0.26,VWS V14.01,2013-05-22 06:26:00,
2013-05-22 02:31:00,59.3,53.8,29.92,NE,45,0.0,0.0,82,0.00,,---,0.26,VWS V14.01,2013-05-22 06:31:00,
2013-05-22 02:36:00,59.3,53.8,29.92,NE,45,0.0,0.0,82,0.00,,---,0.26,VWS V14.01,2013-05-22 06:36:00,
2013-05-22 02:41:00,59.3,53.8,29.92,NE,45,0.0,0.0,82,0.00,,---,0.26,VWS V14.01,2013-05-22 06:41:00,
2013-05-22 02:46:00,59.3,53.8,29.92,NE,45,0.0,0.0,82,0.00,,---,0.26,VWS V14.01,2013-05-22 06:46:00,
2013-05-22 02:51:00,59.3,53.8,29.92,NE,45,0.0,0.0,82,0.00,,---,0.26,VWS V14.01,2013-05-22 06:51:00,
2013-05-22 02:56:00,59.3,54.2,29.92,NE,45,0.0,0.0,83,0.00,,---,0.26,VWS V14.01,2013-05-22 06:56:00,
2013-05-22 03:01:00,59.3,54.2,29.92,NE,45,0.0,0.0,83,0.00,,---,0.26,VWS V14.01,2013-05-22 07:01:00,
2013-05-22 03:06:00,59.1,54.0,29.92,NE,45,0.0,0.0,83,0.00,,---,0.26,VWS V14.01,2013-05-22 07:06:00,
2013-05-22 03:11:00,59.1,54.0,29.91,NE,45,0.0,0.0,83,0.00,,---,0.26,VWS V14.01,2013-05-22 07:11:00,
2013-05-22 03:16:00,59.1,54.0,29.91,NE,45,0.0,0.0,83,0.00,,---,0.26,VWS V14.01,2013-05-22 07:16:00,
2013-05-22 03:21:00,59.1,54.0,29.91,NE,45,0.0,0.0,83,0.00,,---,0.26,VWS V14.01,2013-05-22 07:21:00,
2013-05-22 03:26:00,59.1,54.0,29.91,NE,45,0.0,0.0,83,0.00,,---,0.26,VWS V14.01,2013-05-22 07:26:00,
2013-05-22 03:31:00,59.1,54.0,29.91,NE,45,0.0,0.0,83,0.00,,---,0.26,VWS V14.01,2013-05-22 07:31:00,
2013-05-22 03:36:00,59.1,54.0,29.91,NE,45,0.0,0.0,83,0.00,,---,0.26,VWS V14.01,2013-05-22 07:36:00,
2013-05-22 03:41:00,59.1,54.0,29.91,NE,45,0.0,0.0,83,0.00,,---,0.26,VWS V14.01,2013-05-22 07:41:00,
2013-05-22 03:46:00,59.1,54.0,29.91,NE,45,0.0,0.0,83,0.00,,---,0.26,VWS V14.01,2013-05-22 07:46:00,
2013-05-22 03:51:00,59.1,54.0,29.91,NE,45,0.0,0.0,83,0.00,,---,0.26,VWS V14.01,2013-05-22 07:51:00,
2013-05-22 03:56:00,59.1,54.0,29.92,NE,45,0.0,0.0,83,0.00,,---,0.26,VWS V14.01,2013-05-22 07:56:00,
2013-05-22 04:01:00,59.1,54.3,29.92,NE,45,0.0,0.0,84,0.00,,---,0.26,VWS V14.01,2013-05-22 08:01:00,
2013-05-22 04:06:00,59.1,54.3,29.92,NE,45,0.0,0.0,84,0.00,,---,0.26,VWS V14.01,2013-05-22 08:06:00,
2013-05-22 04:11:00,59.1,54.3,29.91,NE,45,0.0,0.0,84,0.00,,---,0.26,VWS V14.01,2013-05-22 08:11:00,
2013-05-22 04:16:00,59.1,54.3,29.91,NE,45,0.0,0.0,84,0.00,,---,0.26,VWS V14.01,2013-05-22 08:16:00,
2013-05-22 04:21:00,59.1,54.3,29.91,NE,45,0.0,0.0,84,0.00,,---,0.26,VWS V14.01,2013-05-22 08:21:00,
2013-05-22 04:26:00,59.1,54.3,29.92,NE,45,0.0,0.0,84,0.00,,---,0.26,VWS V14.01,2013-05-22 08:26:00,
2013-05-22 04:31:00,59.3,54.5,29.92,NE,45,0.0,0.0,84,0.00,,---,0.26,VWS V14.01,2013-05-22 08:31:00,
2013-05-22 04:36:00,59.3,54.8,29.91,NE,45,0.0,0.0,85,0.00,,---,0.26,VWS V14.01,2013-05-22 08:36:00,
2013-05-22 04:41:00,59.5,55.0,29.92,NE,45,0.0,0.0,85,0.00,,---,0.26,VWS V14.01,2013-05-22 08:41:00,
2013-05-22 04:46:00,59.5,55.0,29.92,NE,45,0.0,0.0,85,0.00,,---,0.26,VWS V14.01,2013-05-22 08:46:00,
2013-05-22 04:51:00,59.7,55.5,29.92,NE,45,0.0,0.0,86,0.00,,---,0.26,VWS V14.01,2013-05-22 08:51:00,
2013-05-22 04:56:00,59.7,55.5,29.92,NE,45,0.0,0.0,86,0.00,,---,0.26,VWS V14.01,2013-05-22 08:56:00,
2013-05-22 05:01:00,59.9,55.7,29.92,NE,45,0.0,0.0,86,0.00,,---,0.26,VWS V14.01,2013-05-22 09:01:00,
2013-05-22 05:06:00,60.0,55.8,29.93,East,90,0.0,0.0,86,0.00,,---,0.26,VWS V14.01,2013-05-22 09:06:00,
2013-05-22 05:11:00,60.0,55.8,29.93,SSE,158,0.0,0.0,86,0.00,,---,0.26,VWS V14.01,2013-05-22 09:11:00,
2013-05-22 05:16:00,60.4,56.2,29.93,ESE,112,0.0,0.0,86,0.00,,---,0.26,VWS V14.01,2013-05-22 09:16:00,
2013-05-22 05:21:00,60.6,56.4,29.93,SE,135,0.0,0.0,86,0.00,,---,0.26,VWS V14.01,2013-05-22 09:21:00,
2013-05-22 05:25:00,60.6,56.4,29.93,SE,135,0.0,0.0,86,0.00,,---,0.26,VWS V14.01,2013-05-22 09:25:00,
2013-05-22 05:30:00,60.6,56.4,29.94,SE,135,0.0,0.0,86,0.00,,---,0.26,VWS V14.01,2013-05-22 09:30:00,
2013-05-22 05:35:00,60.8,56.6,29.93,SE,135,0.0,0.0,86,0.00,,---,0.26,VWS V14.01,2013-05-22 09:35:00,
2013-05-22 05:40:00,60.9,56.7,29.94,SE,135,0.0,0.0,86,0.00,,---,0.26,VWS V14.01,2013-05-22 09:40:00,
2013-05-22 05:45:00,60.9,56.7,29.94,SSW,202,0.0,0.0,86,0.00,,---,0.26,VWS V14.01,2013-05-22 09:45:00,
2013-05-22 05:50:00,60.9,56.7,29.93,SE,135,0.0,0.0,86,0.00,,---,0.26,VWS V14.01,2013-05-22 09:50:00,
2013-05-22 05:55:00,60.9,56.7,29.94,SE,135,0.0,0.0,86,0.00,,---,0.26,VWS V14.01,2013-05-22 09:55:00,
2013-05-22 06:00:00,61.1,56.9,29.94,SE,135,0.0,0.0,86,0.00,,---,0.26,VWS V14.01,2013-05-22 10:00:00,
2013-05-22 06:05:00,61.1,56.9,29.94,SSE,158,0.0,0.0,86,0.00,,---,0.26,VWS V14.01,2013-05-22 10:05:00,
2013-05-22 06:10:00,61.1,56.9,29.94,SSE,158,0.0,0.0,86,0.00,,---,0.26,VWS V14.01,2013-05-22 10:10:00,
2013-05-22 06:15:00,61.1,56.9,29.94,North,0,0.0,0.0,86,0.00,,---,0.26,VWS V14.01,2013-05-22 10:15:00,
2013-05-22 06:20:00,61.1,56.9,29.94,WNW,292,0.0,0.0,86,0.00,,---,0.26,VWS V14.01,2013-05-22 10:20:00,
2013-05-22 06:25:00,61.3,57.1,29.94,NNW,338,0.0,0.0,86,0.00,,---,0.26,VWS V14.01,2013-05-22 10:25:00,
2013-05-22 06:30:00,61.3,57.4,29.95,NNW,338,0.0,0.0,87,0.00,,---,0.26,VWS V14.01,2013-05-22 10:30:00,
2013-05-22 06:35:00,61.3,57.4,29.94,NW,315,0.0,0.0,87,0.00,,---,0.26,VWS V14.01,2013-05-22 10:35:00,
2013-05-22 06:40:00,61.3,57.4,29.94,NE,45,0.0,0.0,87,0.00,,---,0.26,VWS V14.01,2013-05-22 10:40:00,
2013-05-22 06:45:00,61.5,57.6,29.95,NE,45,0.0,0.0,87,0.00,,---,0.26,VWS V14.01,2013-05-22 10:45:00,
2013-05-22 06:50:00,61.5,57.6,29.95,ENE,68,0.0,0.0,87,0.00,,---,0.26,VWS V14.01,2013-05-22 10:50:00,
2013-05-22 06:55:00,61.5,57.6,29.95,SE,135,0.0,0.0,87,0.00,,---,0.26,VWS V14.01,2013-05-22 10:55:00,
2013-05-22 07:00:00,61.5,57.6,29.95,SE,135,0.0,0.0,87,0.00,,---,0.26,VWS V14.01,2013-05-22 11:00:00,
2013-05-22 07:05:00,61.7,57.8,29.95,SE,135,0.0,0.0,87,0.00,,---,0.26,VWS V14.01,2013-05-22 11:05:00,
2013-05-22 07:10:00,61.7,57.8,29.95,SE,135,0.0,0.0,87,0.00,,---,0.26,VWS V14.01,2013-05-22 11:10:00,
2013-05-22 07:15:00,61.8,57.9,29.95,SE,135,0.0,0.0,87,0.00,,---,0.26,VWS V14.01,2013-05-22 11:15:00,
2013-05-22 07:20:00,61.7,57.8,29.95,SE,135,0.0,0.0,87,0.00,,---,0.26,VWS V14.01,2013-05-22 11:20:00,
2013-05-22 07:25:00,61.8,57.9,29.95,SE,135,0.0,0.0,87,0.00,,---,0.26,VWS V14.01,2013-05-22 11:25:00,
2013-05-22 07:30:00,61.8,57.9,29.95,SE,135,0.0,0.0,87,0.00,,---,0.26,VWS V14.01,2013-05-22 11:30:00,
2013-05-22 07:35:00,61.8,57.9,29.94,SE,135,0.0,0.0,87,0.00,,---,0.26,VWS V14.01,2013-05-22 11:35:00,
2013-05-22 07:40:00,62.0,58.1,29.95,South,180,0.0,0.0,87,0.00,,---,0.26,VWS V14.01,2013-05-22 11:40:00,
2013-05-22 07:45:00,62.2,58.3,29.95,South,180,0.0,0.0,87,0.00,,---,0.26,VWS V14.01,2013-05-22 11:45:00,
2013-05-22 07:50:00,62.2,58.3,29.95,South,180,0.0,0.0,87,0.00,,---,0.26,VWS V14.01,2013-05-22 11:50:00,
2013-05-22 07:55:00,62.4,58.5,29.95,NW,315,0.0,0.0,87,0.00,,---,0.26,VWS V14.01,2013-05-22 11:55:00,
2013-05-22 08:00:00,62.4,58.5,29.95,NW,315,0.0,0.0,87,0.00,,---,0.26,VWS V14.01,2013-05-22 12:00:00,
2013-05-22 08:05:00,62.4,58.5,29.95,NW,315,0.0,0.0,87,0.00,,---,0.26,VWS V14.01,2013-05-22 12:05:00,
2013-05-22 08:10:00,62.7,58.8,29.95,NW,315,0.0,0.0,87,0.00,,---,0.26,VWS V14.01,2013-05-22 12:10:00,
2013-05-22 08:15:00,62.9,59.0,29.95,NW,315,0.0,0.0,87,0.00,,---,0.26,VWS V14.01,2013-05-22 12:15:00,
2013-05-22 08:20:00,63.1,59.2,29.94,NW,315,0.0,0.0,87,0.00,,---,0.26,VWS V14.01,2013-05-22 12:20:00,
2013-05-22 08:25:00,63.3,59.4,29.94,NNW,338,0.0,0.0,87,0.00,,---,0.26,VWS V14.01,2013-05-22 12:25:00,
2013-05-22 08:30:00,63.5,59.6,29.94,NNW,338,0.0,0.0,87,0.00,,---,0.26,VWS V14.01,2013-05-22 12:30:00,
2013-05-22 08:35:00,63.6,59.7,29.94,NNE,22,0.0,0.0,87,0.00,,---,0.26,VWS V14.01,2013-05-22 12:35:00,
2013-05-22 08:40:00,63.6,59.3,29.94,NE,45,0.0,0.0,86,0.00,,---,0.26,VWS V14.01,2013-05-22 12:40:00,
2013-05-22 08:45:00,64.0,59.7,29.94,NE,45,0.0,0.0,86,0.00,,---,0.26,VWS V14.01,2013-05-22 12:45:00,
2013-05-22 08:50:00,64.0,59.7,29.94,NE,45,0.0,0.0,86,0.00,,---,0.26,VWS V14.01,2013-05-22 12:50:00,
2013-05-22 08:55:00,64.2,59.9,29.94,NE,45,0.0,0.0,86,0.00,,---,0.26,VWS V14.01,2013-05-22 12:55:00,
2013-05-22 09:00:00,64.2,59.9,29.94,NE,45,0.0,0.0,86,0.00,,---,0.26,VWS V14.01,2013-05-22 13:00:00,
2013-05-22 09:05:00,64.2,59.9,29.94,NE,45,0.0,0.0,86,0.00,,---,0.26,VWS V14.01,2013-05-22 13:05:00,
2013-05-22 09:10:00,64.5,60.2,29.94,NE,45,0.0,0.0,86,0.00,,---,0.26,VWS V14.01,2013-05-22 13:10:00,
2013-05-22 09:15:00,64.7,60.4,29.94,NE,45,0.0,0.0,86,0.00,,---,0.26,VWS V14.01,2013-05-22 13:15:00,
2013-05-22 09:20:00,64.9,60.6,29.94,NE,45,0.0,0.0,86,0.00,,---,0.26,VWS V14.01,2013-05-22 13:20:00,
2013-05-22 09:25:00,65.1,60.8,29.94,NE,45,0.0,0.0,86,0.00,,---,0.26,VWS V14.01,2013-05-22 13:25:00,
2013-05-22 09:30:00,65.3,61.0,29.94,NE,45,0.0,0.0,86,0.00,,---,0.26,VWS V14.01,2013-05-22 13:30:00,
2013-05-22 09:35:00,65.3,61.0,29.94,NE,45,0.0,0.0,86,0.00,,---,0.26,VWS V14.01,2013-05-22 13:35:00,
2013-05-22 09:40:00,65.4,60.8,29.94,NE,45,0.0,0.0,85,0.00,,---,0.26,VWS V14.01,2013-05-22 13:40:00,
2013-05-22 09:45:00,65.8,61.2,29.94,NE,45,0.0,0.0,85,0.00,,---,0.26,VWS V14.01,2013-05-22 13:45:00,
2013-05-22 09:50:00,66.0,61.4,29.94,NE,45,0.0,0.0,85,0.00,,---,0.26,VWS V14.01,2013-05-22 13:50:00,
2013-05-22 09:55:00,66.2,61.6,29.94,NNE,22,0.0,0.0,85,0.00,,---,0.26,VWS V14.01,2013-05-22 13:55:00,
2013-05-22 10:00:00,66.5,61.9,29.94,NNE,22,0.0,0.0,85,0.00,,---,0.26,VWS V14.01,2013-05-22 14:00:00,
2013-05-22 10:05:00,66.7,61.7,29.94,NNE,22,0.0,0.0,84,0.00,,---,0.26,VWS V14.01,2013-05-22 14:05:00,
2013-05-22 10:10:00,66.9,61.9,29.94,NNE,22,0.0,0.0,84,0.00,,---,0.26,VWS V14.01,2013-05-22 14:10:00,
2013-05-22 10:15:00,67.2,62.2,29.94,North,0,0.0,0.0,84,0.00,,---,0.26,VWS V14.01,2013-05-22 14:15:00,
2013-05-22 10:20:00,67.6,62.6,29.94,North,0,0.0,0.0,84,0.00,,---,0.26,VWS V14.01,2013-05-22 14:20:00,
2013-05-22 10:25:00,67.8,62.5,29.94,North,0,0.0,0.0,83,0.00,,---,0.26,VWS V14.01,2013-05-22 14:25:00,
2013-05-22 10:30:00,68.1,62.8,29.94,North,0,0.0,0.0,83,0.00,,---,0.26,VWS V14.01,2013-05-22 14:30:00,
2013-05-22 10:35:00,68.5,63.1,29.95,NNW,338,0.0,0.0,83,0.00,,---,0.26,VWS V14.01,2013-05-22 14:35:00,
2013-05-22 10:40:00,68.9,63.2,29.95,NNW,338,0.0,0.0,82,0.00,,---,0.26,VWS V14.01,2013-05-22 14:40:00,
2013-05-22 10:45:00,69.2,63.5,29.95,NW,315,0.0,0.0,82,0.00,,---,0.26,VWS V14.01,2013-05-22 14:45:00,
2013-05-22 10:50:00,69.4,63.3,29.94,SE,135,0.0,0.0,81,0.00,,---,0.26,VWS V14.01,2013-05-22 14:50:00,
2013-05-22 10:55:00,69.6,63.5,29.94,SE,135,0.0,0.0,81,0.00,,---,0.26,VWS V14.01,2013-05-22 14:55:00,
2013-05-22 11:00:00,69.9,63.8,29.94,SE,135,0.0,0.0,81,0.00,,---,0.26,VWS V14.01,2013-05-22 15:00:00,
2013-05-22 11:05:00,70.3,64.2,29.95,NW,315,0.0,0.0,81,0.00,,---,0.26,VWS V14.01,2013-05-22 15:05:00,
2013-05-22 11:10:00,70.8,64.3,29.94,North,0,0.0,0.0,80,0.00,,---,0.26,VWS V14.01,2013-05-22 15:10:00,
2013-05-22 11:15:00,71.2,64.4,29.94,SSE,158,0.0,0.0,79,0.00,,---,0.26,VWS V14.01,2013-05-22 15:15:00,
2013-05-22 11:20:00,71.4,64.2,29.94,SE,135,0.0,0.0,78,0.00,,---,0.26,VWS V14.01,2013-05-22 15:20:00,
2013-05-22 11:25:00,71.6,64.8,29.94,NW,315,0.0,0.0,79,0.00,,---,0.26,VWS V14.01,2013-05-22 15:25:00,
2013-05-22 11:30:00,72.1,64.9,29.94,NW,315,0.0,0.0,78,0.00,,---,0.26,VWS V14.01,2013-05-22 15:30:00,
2013-05-22 11:35:00,72.3,64.3,29.94,NNE,22,0.0,0.0,76,0.00,,---,0.26,VWS V14.01,2013-05-22 15:35:00,
2013-05-22 11:40:00,72.3,64.3,29.94,NW,315,0.0,0.0,76,0.00,,---,0.26,VWS V14.01,2013-05-22 15:40:00,
2013-05-22 11:45:00,72.5,64.5,29.94,SE,135,0.0,0.0,76,0.00,,---,0.26,VWS V14.01,2013-05-22 15:45:00,
2013-05-22 11:50:00,72.5,64.5,29.94,NE,45,0.0,0.0,76,0.00,,---,0.26,VWS V14.01,2013-05-22 15:50:00,
2013-05-22 11:55:00,72.6,64.2,29.94,NE,45,0.0,0.0,75,0.00,,---,0.26,VWS V14.01,2013-05-22 15:55:00,
2013-05-22 12:00:00,73.0,65.0,29.94,ENE,68,0.0,0.0,76,0.00,,---,0.26,VWS V14.01,2013-05-22 16:00:00,
2013-05-22 12:05:00,73.2,64.8,29.94,NNE,22,0.0,0.0,75,0.00,,---,0.26,VWS V14.01,2013-05-22 16:05:00,
2013-05-22 12:10:00,73.5,64.7,29.94,North,0,0.0,0.0,74,0.00,,---,0.26,VWS V14.01,2013-05-22 16:10:00,
2013-05-22 12:15:00,73.7,64.5,29.94,SE,135,0.0,0.0,73,0.00,,---,0.26,VWS V14.01,2013-05-22 16:15:00,
2013-05-22 12:20:00,73.7,64.5,29.94,SE,135,0.0,0.0,73,0.00,,---,0.26,VWS V14.01,2013-05-22 16:20:00,
2013-05-22 12:25:00,73.7,64.1,29.94,SE,135,0.0,0.0,72,0.00,,---,0.26,VWS V14.01,2013-05-22 16:25:00,
2013-05-22 12:30:00,73.5,63.5,29.94,NW,315,0.0,0.0,71,0.00,,---,0.26,VWS V14.01,2013-05-22 16:30:00,
2013-05-22 12:35:00,73.5,63.5,29.94,North,0,0.0,0.0,71,0.00,,---,0.26,VWS V14.01,2013-05-22 16:35:00,
2013-05-22 12:40:00,73.4,63.4,29.93,NW,315,0.0,0.0,71,0.00,,---,0.26,VWS V14.01,2013-05-22 16:40:00,
2013-05-22 12:45:00,73.5,63.5,29.94,West,270,0.0,0.0,71,0.00,,---,0.26,VWS V14.01,2013-05-22 16:45:00,
2013-05-22 12:50:00,73.4,63.4,29.93,NW,315,0.0,0.0,71,0.00,,---,0.26,VWS V14.01,2013-05-22 16:50:00,
2013-05-22 12:55:00,73.4,63.4,29.93,SE,135,0.0,0.0,71,0.00,,---,0.26,VWS V14.01,2013-05-22 16:55:00,
2013-05-22 13:00:00,73.2,63.2,29.93,ENE,68,0.0,0.0,71,0.00,,---,0.26,VWS V14.01,2013-05-22 17:00:00,
2013-05-22 13:05:00,73.4,63.4,29.93,ESE,112,0.0,0.0,71,0.00,,---,0.26,VWS V14.01,2013-05-22 17:05:00,
2013-05-22 13:10:00,73.4,63.4,29.93,ENE,68,0.0,0.0,71,0.00,,---,0.26,VWS V14.01,2013-05-22 17:10:00,
2013-05-22 13:15:00,73.5,63.5,29.93,WNW,292,0.0,0.0,71,0.00,,---,0.26,VWS V14.01,2013-05-22 17:15:00,
2013-05-22 13:20:00,73.5,63.5,29.92,SE,135,0.0,0.0,71,0.00,,---,0.26,VWS V14.01,2013-05-22 17:20:00,
2013-05-22 13:25:00,73.9,63.9,29.92,SE,135,0.0,0.0,71,0.00,,---,0.26,VWS V14.01,2013-05-22 17:25:00,
2013-05-22 13:30:00,74.1,64.1,29.92,SE,135,0.0,0.0,71,0.00,,---,0.26,VWS V14.01,2013-05-22 17:30:00,
2013-05-22 13:35:00,74.1,64.1,29.92,SE,135,6.2,6.2,71,0.00,,---,0.26,VWS V14.01,2013-05-22 17:35:00,
2013-05-22 13:40:00,74.4,64.0,29.92,SE,135,4.0,4.0,70,0.00,,---,0.26,VWS V14.01,2013-05-22 17:40:00,
2013-05-22 13:45:00,74.8,64.8,29.92,SE,135,2.0,2.0,71,0.00,,---,0.26,VWS V14.01,2013-05-22 17:45:00,
2013-05-22 13:50:00,75.3,64.8,29.91,North,0,5.5,5.5,70,0.00,,---,0.26,VWS V14.01,2013-05-22 17:50:00,
2013-05-22 13:55:00,75.7,65.2,29.91,NW,315,0.0,0.0,70,0.00,,---,0.26,VWS V14.01,2013-05-22 17:55:00,
2013-05-22 14:00:00,76.2,65.3,29.91,ENE,68,1.1,1.1,69,0.00,,---,0.26,VWS V14.01,2013-05-22 18:00:00,
2013-05-22 14:05:00,76.6,65.7,29.91,NW,315,2.2,2.2,69,0.00,,---,0.26,VWS V14.01,2013-05-22 18:05:00,
2013-05-22 14:10:00,77.1,65.3,29.90,WNW,292,0.0,0.0,67,0.00,,---,0.26,VWS V14.01,2013-05-22 18:10:00,
2013-05-22 14:15:00,77.3,65.5,29.90,SE,135,4.9,4.9,67,0.00,,---,0.26,VWS V14.01,2013-05-22 18:15:00,
2013-05-22 14:20:00,77.7,65.9,29.90,NE,45,0.0,0.0,67,0.00,,---,0.26,VWS V14.01,2013-05-22 18:20:00,
2013-05-22 14:25:00,78.0,65.3,29.90,NW,315,8.9,8.9,65,0.00,,---,0.26,VWS V14.01,2013-05-22 18:25:00,
2013-05-22 14:30:00,77.9,64.8,29.90,NNW,338,0.0,0.0,64,0.00,,---,0.26,VWS V14.01,2013-05-22 18:30:00,
2013-05-22 14:35:00,78.0,64.8,29.90,NW,315,0.0,0.0,64,0.00,,---,0.26,VWS V14.01,2013-05-22 18:35:00,
2013-05-22 14:40:00,78.4,65.2,29.90,North,0,0.0,0.0,64,0.00,,---,0.26,VWS V14.01,2013-05-22 18:40:00,
2013-05-22 14:45:00,78.6,65.4,29.90,NNW,338,1.7,1.7,64,0.00,,---,0.26,VWS V14.01,2013-05-22 18:45:00,
2013-05-22 14:50:00,78.6,65.0,29.90,SE,135,4.0,4.0,63,0.00,,---,0.26,VWS V14.01,2013-05-22 18:50:00,
2013-05-22 14:55:00,79.3,65.6,29.89,WNW,292,0.0,0.0,63,0.00,,---,0.26,VWS V14.01,2013-05-22 18:55:00,
2013-05-22 15:00:00,79.5,65.8,29.89,NNW,338,0.0,0.0,63,0.00,,---,0.26,VWS V14.01,2013-05-22 19:00:00,
2013-05-22 15:05:00,79.8,65.6,29.89,NNW,338,1.1,1.1,62,0.00,,---,0.26,VWS V14.01,2013-05-22 19:05:00,
2013-05-22 15:10:00,80.0,65.4,29.89,NW,315,0.0,0.0,61,0.00,,---,0.26,VWS V14.01,2013-05-22 19:10:00,
2013-05-22 15:15:00,80.2,64.6,29.89,NNW,338,0.0,0.0,59,0.00,,---,0.26,VWS V14.01,2013-05-22 19:15:00,
2013-05-22 15:20:00,80.2,64.1,29.89,NW,315,0.0,0.0,58,0.00,,---,0.26,VWS V14.01,2013-05-22 19:20:00,
2013-05-22 15:25:00,80.4,64.8,29.89,NW,315,0.0,0.0,59,0.00,,---,0.26,VWS V14.01,2013-05-22 19:25:00,
2013-05-22 15:30:00,80.4,64.8,29.89,SE,135,3.1,3.1,59,0.00,,---,0.26,VWS V14.01,2013-05-22 19:30:00,
2013-05-22 15:35:00,80.7,64.6,29.90,NNW,338,0.0,0.0,58,0.00,,---,0.26,VWS V14.01,2013-05-22 19:35:00,
2013-05-22 15:40:00,81.1,64.9,29.90,NNW,338,4.2,4.2,58,0.00,,---,0.26,VWS V14.01,2013-05-22 19:40:00,
2013-05-22 15:45:00,81.3,64.6,29.89,North,0,0.0,0.0,57,0.00,,---,0.26,VWS V14.01,2013-05-22 19:45:00,
2013-05-22 15:50:00,81.3,64.1,29.89,NW,315,6.9,6.9,56,0.00,,---,0.26,VWS V14.01,2013-05-22 19:50:00,
2013-05-22 15:55:00,81.3,64.1,29.89,NW,315,0.0,0.0,56,0.00,,---,0.26,VWS V14.01,2013-05-22 19:55:00,
2013-05-22 16:00:00,81.3,64.1,29.90,NW,315,7.1,7.1,56,0.00,,---,0.26,VWS V14.01,2013-05-22 20:00:00,
2013-05-22 16:05:00,81.5,64.3,29.89,WNW,292,0.0,0.0,56,0.00,,---,0.26,VWS V14.01,2013-05-22 20:05:00,
2013-05-22 16:10:00,81.3,64.1,29.89,NW,315,0.0,0.0,56,0.00,,---,0.26,VWS V14.01,2013-05-22 20:10:00,
2013-05-22 16:15:00,81.5,64.8,29.89,SE,135,5.8,5.8,57,0.00,,---,0.26,VWS V14.01,2013-05-22 20:15:00,
2013-05-22 16:20:00,81.6,64.9,29.89,SE,135,0.0,0.0,57,0.00,,---,0.26,VWS V14.01,2013-05-22 20:20:00,
2013-05-22 16:25:00,82.0,64.8,29.89,ENE,68,0.0,0.0,56,0.00,,---,0.26,VWS V14.01,2013-05-22 20:25:00,
2013-05-22 16:30:00,82.2,64.4,29.89,ESE,112,0.0,0.0,55,0.00,,---,0.26,VWS V14.01,2013-05-22 20:30:00,
2013-05-22 16:35:00,82.2,64.4,29.89,NW,315,3.8,3.8,55,0.00,,---,0.26,VWS V14.01,2013-05-22 20:35:00,
2013-05-22 16:40:00,82.2,64.4,29.89,West,270,1.1,1.1,55,0.00,,---,0.26,VWS V14.01,2013-05-22 20:40:00,
2013-05-22 16:45:00,82.2,64.4,29.89,North,0,0.0,0.0,55,0.00,,---,0.26,VWS V14.01,2013-05-22 20:45:00,
2013-05-22 16:50:00,82.2,64.4,29.89,NNE,22,0.0,0.0,55,0.00,,---,0.26,VWS V14.01,2013-05-22 20:50:00,
2013-05-22 16:55:00,82.2,63.9,29.89,NW,315,1.5,1.5,54,0.00,,---,0.26,VWS V14.01,2013-05-22 20:55:00,
2013-05-22 17:00:00,82.2,64.4,29.89,NW,315,2.9,2.9,55,0.00,,---,0.26,VWS V14.01,2013-05-22 21:00:00,
2013-05-22 17:05:00,82.4,64.6,29.89,NNW,338,0.0,0.0,55,0.00,,---,0.26,VWS V14.01,2013-05-22 21:05:00,
2013-05-22 17:10:00,82.2,64.4,29.89,NNE,22,0.0,0.0,55,0.00,,---,0.26,VWS V14.01,2013-05-22 21:10:00,
2013-05-22 17:15:00,82.0,64.3,29.88,NNE,22,0.0,0.0,55,0.00,,---,0.26,VWS V14.01,2013-05-22 21:15:00,
2013-05-22 17:20:00,81.6,63.4,29.88,NW,315,3.1,3.1,54,0.00,,---,0.26,VWS V14.01,2013-05-22 21:20:00,
2013-05-22 17:25:00,81.3,63.1,29.89,West,270,0.0,0.0,54,0.00,,---,0.26,VWS V14.01,2013-05-22 21:25:00,
2013-05-22 17:30:00,81.1,62.9,29.88,NE,45,0.0,0.0,54,0.00,,---,0.26,VWS V14.01,2013-05-22 21:30:00,
2013-05-22 17:35:00,80.7,62.5,29.88,NNW,338,0.0,0.0,54,0.00,,---,0.26,VWS V14.01,2013-05-22 21:35:00,
2013-05-22 17:40:00,80.2,62.1,29.88,NW,315,2.0,2.0,54,0.00,,---,0.26,VWS V14.01,2013-05-22 21:40:00,
2013-05-22 17:45:00,79.8,61.7,29.88,SSE,158,0.0,0.0,54,0.00,,---,0.26,VWS V14.01,2013-05-22 21:45:00,
2013-05-22 17:50:00,79.5,61.9,29.88,NNE,22,1.3,1.3,55,0.00,,---,0.26,VWS V14.01,2013-05-22 21:50:00,
2013-05-22 17:55:00,78.9,61.4,29.89,North,0,0.0,0.0,55,0.00,,---,0.26,VWS V14.01,2013-05-22 21:55:00,
2013-05-22 18:00:00,78.6,61.1,29.88,NW,315,2.4,2.4,55,0.00,,---,0.26,VWS V14.01,2013-05-22 22:00:00,
2013-05-22 18:05:00,78.4,61.4,29.88,NNE,22,0.0,0.0,56,0.00,,---,0.26,VWS V14.01,2013-05-22 22:05:00,
2013-05-22 18:10:00,78.0,61.0,29.88,West,270,0.0,0.0,56,0.00,,---,0.26,VWS V14.01,2013-05-22 22:10:00,
2013-05-22 18:15:00,77.7,61.3,29.87,NNW,338,0.0,0.0,57,0.00,,---,0.26,VWS V14.01,2013-05-22 22:15:00,
2013-05-22 18:20:00,77.5,61.1,29.86,NW,315,0.0,0.0,57,0.00,,---,0.26,VWS V14.01,2013-05-22 22:20:00,
2013-05-22 18:25:00,77.3,61.4,29.86,SE,135,0.0,0.0,58,0.00,,---,0.26,VWS V14.01,2013-05-22 22:25:00,
2013-05-22 18:30:00,77.1,61.2,29.86,SSE,158,0.0,0.0,58,0.00,,---,0.26,VWS V14.01,2013-05-22 22:30:00,
2013-05-22 18:35:00,77.1,61.7,29.86,SSE,158,0.0,0.0,59,0.00,,---,0.26,VWS V14.01,2013-05-22 22:35:00,
2013-05-22 18:40:00,77.1,61.7,29.86,WSW,248,0.0,0.0,59,0.00,,---,0.26,VWS V14.01,2013-05-22 22:40:00,
2013-05-22 18:45:00,76.8,61.9,29.87,NW,315,0.0,0.0,60,0.00,,---,0.26,VWS V14.01,2013-05-22 22:45:00,
2013-05-22 18:50:00,76.8,61.9,29.88,WNW,292,0.0,0.0,60,0.00,,---,0.26,VWS V14.01,2013-05-22 22:50:00,
2013-05-22 18:55:00,76.8,61.9,29.87,North,0,0.0,0.0,60,0.00,,---,0.26,VWS V14.01,2013-05-22 22:55:00,
2013-05-22 19:00:00,76.6,61.7,29.87,West,270,0.0,0.0,60,0.00,,---,0.26,VWS V14.01,2013-05-22 23:00:00,
2013-05-22 19:05:00,76.6,61.7,29.88,SE,135,0.0,0.0,60,0.00,,---,0.26,VWS V14.01,2013-05-22 23:05:00,
2013-05-22 19:10:00,76.2,60.8,29.88,ESE,112,3.3,3.3,59,0.00,,---,0.26,VWS V14.01,2013-05-22 23:10:00,
2013-05-22 19:15:00,76.2,61.3,29.88,SE,135,0.0,0.0,60,0.00,,---,0.26,VWS V14.01,2013-05-22 23:15:00,
2013-05-22 19:20:00,76.1,61.2,29.88,SE,135,6.0,6.0,60,0.00,,---,0.26,VWS V14.01,2013-05-22 23:20:00,
2013-05-22 19:25:00,75.9,61.0,29.88,SE,135,4.0,4.0,60,0.00,,---,0.26,VWS V14.01,2013-05-22 23:25:00,
2013-05-22 19:30:00,75.7,60.8,29.88,SE,135,0.0,0.0,60,0.00,,---,0.26,VWS V14.01,2013-05-22 23:30:00,
2013-05-22 19:35:00,75.5,60.7,29.88,SSE,158,0.0,0.0,60,0.00,,---,0.26,VWS V14.01,2013-05-22 23:35:00,
2013-05-22 19:40:00,75.2,60.4,29.88,SE,135,0.0,0.0,60,0.00,,---,0.26,VWS V14.01,2013-05-22 23:40:00,
2013-05-22 19:45:00,75.0,60.2,29.88,SE,135,0.6,0.6,60,0.00,,---,0.26,VWS V14.01,2013-05-22 23:45:00,
2013-05-22 19:50:00,75.0,60.2,29.88,SE,135,0.0,0.0,60,0.00,,---,0.26,VWS V14.01,2013-05-22 23:50:00,
2013-05-22 19:55:00,74.8,60.5,29.88,SE,135,0.6,0.6,61,0.00,,---,0.26,VWS V14.01,2013-05-22 23:55:00,
2013-05-22 20:00:00,74.4,60.1,29.88,SE,135,2.2,2.2,61,0.00,,---,0.26,VWS V14.01,2013-05-23 00:00:00,
2013-05-22 20:05:00,74.4,60.1,29.88,SE,135,1.1,1.1,61,0.00,,---,0.26,VWS V14.01,2013-05-23 00:05:00,
2013-05-22 20:10:00,74.1,59.8,29.88,SSE,158,2.6,2.6,61,0.00,,---,0.26,VWS V14.01,2013-05-23 00:10:00,
2013-05-22 20:15:00,73.9,59.6,29.87,South,180,0.0,0.0,61,0.00,,---,0.26,VWS V14.01,2013-05-23 00:15:00,
2013-05-22 20:20:00,73.9,59.6,29.87,SE,135,0.0,0.0,61,0.00,,---,0.26,VWS V14.01,2013-05-23 00:20:00,
2013-05-22 20:25:00,73.5,59.7,29.87,SE,135,2.4,2.4,62,0.00,,---,0.26,VWS V14.01,2013-05-23 00:25:00,
2013-05-22 20:30:00,73.5,59.7,29.87,SE,135,2.9,2.9,62,0.00,,---,0.26,VWS V14.01,2013-05-23 00:30:00,
2013-05-22 20:35:00,73.2,59.9,29.87,SE,135,0.0,0.0,63,0.00,,---,0.26,VWS V14.01,2013-05-23 00:35:00,
2013-05-22 20:40:00,73.0,59.7,29.87,SE,135,0.0,0.0,63,0.00,,---,0.26,VWS V14.01,2013-05-23 00:40:00,
2013-05-22 20:45:00,73.0,59.7,29.87,SE,135,0.0,0.0,63,0.00,,---,0.26,VWS V14.01,2013-05-23 00:45:00,
2013-05-22 20:50:00,72.6,59.7,29.87,SE,135,0.0,0.0,64,0.00,,---,0.26,VWS V14.01,2013-05-23 00:50:00,
2013-05-22 20:55:00,72.3,59.9,29.87,SE,135,0.0,0.0,65,0.00,,---,0.26,VWS V14.01,2013-05-23 00:55:00,
2013-05-22 21:00:00,72.1,59.7,29.86,SE,135,0.0,0.0,65,0.00,,---,0.26,VWS V14.01,2013-05-23 01:00:00,
2013-05-22 21:05:00,71.9,59.9,29.86,South,180,0.0,0.0,66,0.00,,---,0.26,VWS V14.01,2013-05-23 01:05:00,
2013-05-22 21:10:00,71.7,59.8,29.86,SE,135,4.0,4.0,66,0.00,,---,0.26,VWS V14.01,2013-05-23 01:10:00,
2013-05-22 21:15:00,71.7,60.2,29.86,SE,135,3.8,3.8,67,0.00,,---,0.26,VWS V14.01,2013-05-23 01:15:00,
2013-05-22 21:20:00,71.7,60.2,29.86,SE,135,4.6,4.6,67,0.00,,---,0.26,VWS V14.01,2013-05-23 01:20:00,
2013-05-22 21:25:00,71.7,60.2,29.86,SE,135,3.3,3.3,67,0.00,,---,0.26,VWS V14.01,2013-05-23 01:25:00,
2013-05-22 21:30:00,71.7,60.2,29.86,SE,135,5.1,5.1,67,0.00,,---,0.26,VWS V14.01,2013-05-23 01:30:00,
2013-05-22 21:35:00,71.7,60.2,29.86,SE,135,4.4,4.4,67,0.00,,---,0.26,VWS V14.01,2013-05-23 01:35:00,
2013-05-22 21:40:00,71.7,60.2,29.86,SE,135,6.0,6.0,67,0.00,,---,0.26,VWS V14.01,2013-05-23 01:40:00,
2013-05-22 21:45:00,71.7,60.2,29.86,SE,135,5.8,5.8,67,0.00,,---,0.26,VWS V14.01,2013-05-23 01:45:00,
2013-05-22 21:50:00,71.7,60.2,29.86,SE,135,7.6,7.6,67,0.00,,---,0.26,VWS V14.01,2013-05-23 01:50:00,
2013-05-22 21:55:00,71.7,60.2,29.85,SE,135,5.5,5.5,67,0.00,,---,0.26,VWS V14.01,2013-05-23 01:55:00,
2013-05-22 22:00:00,71.7,60.2,29.85,SE,135,4.9,4.9,67,0.00,,---,0.26,VWS V14.01,2013-05-23 02:00:00,
2013-05-22 22:05:00,71.6,60.1,29.85,SE,135,4.2,4.2,67,0.00,,---,0.26,VWS V14.01,2013-05-23 02:05:00,
2013-05-22 22:10:00,71.6,60.1,29.85,SE,135,0.6,0.6,67,0.00,,---,0.26,VWS V14.01,2013-05-23 02:10:00,
2013-05-22 22:15:00,71.4,59.9,29.85,SE,135,3.3,3.3,67,0.00,,---,0.26,VWS V14.01,2013-05-23 02:15:00,
2013-05-22 22:20:00,71.4,59.9,29.85,SE,135,6.9,6.9,67,0.00,,---,0.26,VWS V14.01,2013-05-23 02:20:00,
2013-05-22 22:25:00,71.4,59.9,29.85,SE,135,2.6,2.6,67,0.00,,---,0.26,VWS V14.01,2013-05-23 02:25:00,
2013-05-22 22:30:00,71.4,59.9,29.84,SE,135,4.0,4.0,67,0.00,,---,0.26,VWS V14.01,2013-05-23 02:30:00,
2013-05-22 22:35:00,71.2,59.7,29.84,SE,135,2.0,2.0,67,0.00,,---,0.26,VWS V14.01,2013-05-23 02:35:00,
2013-05-22 22:40:00,71.2,59.3,29.84,SE,135,0.8,0.8,66,0.00,,---,0.26,VWS V14.01,2013-05-23 02:40:00,
2013-05-22 22:45:00,71.4,59.9,29.84,SE,135,4.6,4.6,67,0.00,,---,0.26,VWS V14.01,2013-05-23 02:45:00,
2013-05-22 22:50:00,71.4,59.9,29.84,SE,135,0.0,0.0,67,0.00,,---,0.26,VWS V14.01,2013-05-23 02:50:00,
2013-05-22 22:55:00,71.4,59.9,29.85,SE,135,1.5,1.5,67,0.00,,---,0.26,VWS V14.01,2013-05-23 02:55:00,
2013-05-22 23:00:00,71.4,59.9,29.84,SE,135,7.3,7.3,67,0.00,,---,0.26,VWS V14.01,2013-05-23 03:00:00,
2013-05-22 23:05:00,71.4,60.3,29.84,SE,135,1.3,1.3,68,0.00,,---,0.26,VWS V14.01,2013-05-23 03:05:00,
2013-05-22 23:10:00,71.4,60.3,29.84,SE,135,7.3,7.3,68,0.00,,---,0.26,VWS V14.01,2013-05-23 03:10:00,
2013-05-22 23:15:00,71.4,60.3,29.85,SE,135,7.1,7.1,68,0.00,,---,0.26,VWS V14.01,2013-05-23 03:15:00,
2013-05-22 23:20:00,71.6,60.9,29.85,SE,135,5.5,5.5,69,0.00,,---,0.26,VWS V14.01,2013-05-23 03:20:00,
2013-05-22 23:25:00,71.7,61.0,29.85,SE,135,9.3,9.3,69,0.00,,---,0.26,VWS V14.01,2013-05-23 03:25:00,
2013-05-22 23:30:00,71.7,61.0,29.86,SE,135,6.7,6.7,69,0.00,,---,0.26,VWS V14.01,2013-05-23 03:30:00,
2013-05-22 23:35:00,71.9,61.2,29.86,SE,135,4.4,4.4,69,0.00,,---,0.26,VWS V14.01,2013-05-23 03:35:00,
2013-05-22 23:40:00,71.9,61.6,29.86,SE,135,1.5,1.5,70,0.00,,---,0.26,VWS V14.01,2013-05-23 03:40:00,
2013-05-22 23:45:00,71.7,61.4,29.87,SE,135,3.5,3.5,70,0.00,,---,0.26,VWS V14.01,2013-05-23 03:45:00,
2013-05-22 23:50:00,71.2,61.3,29.88,SE,135,11.1,11.1,71,0.00,,---,0.26,VWS V14.01,2013-05-23 03:50:00,
2013-05-22 23:55:00,70.7,60.5,29.89,SSW,202,7.6,7.6,70,0.02,,---,0.28,VWS V14.01,2013-05-23 03:55:00,